• In Hungary
  • List of Countries
  • For 7 days
  • Water Temperature
  • Satellite Maps
  • Weather Map
  • News
  • Weather Widgets
  • user-avatar
    Login

    Hourly Weather Djaipur

    Today, 17 July, Tuesday

    Time Temperature Precipitation Wind Pressure Humidity
    00:00 +34°C° 4.6 mm 3 mps 715 mmHg 68%
    01:00 +33°C° 4.6 mm 3 mps 714 mmHg 70%
    02:00 +33°C° 4.6 mm 3 mps 714 mmHg 72%
    03:00 +31°C° 1.9 mm 3 mps 714 mmHg 72%
    04:00 +31°C° 1.9 mm 2 mps 714 mmHg 72%
    05:00 +31°C° 0 mm 2 mps 714 mmHg 74%
    06:00 +33°C° 1.3 mm 3 mps 714 mmHg 71%
    07:00 +33°C° 1.3 mm 3 mps 715 mmHg 68%
    08:00 +34°C° 1.3 mm 4 mps 715 mmHg 64%
    09:00 +35°C° 3.3 mm 4 mps 715 mmHg 61%
    10:00 +36°C° 3.3 mm 3 mps 715 mmHg 57%
    11:00 +37°C° 3.3 mm 3 mps 715 mmHg 53%
    12:00 +37°C° 0.3 mm 3 mps 715 mmHg 51%
    13:00 +38°C° 0.3 mm 3 mps 714 mmHg 48%
    14:00 +38°C° 0.3 mm 2 mps 714 mmHg 46%
    15:00 +38°C° 0 mm 2 mps 713 mmHg 46%
    16:00 +38°C° 0 mm 2 mps 713 mmHg 45%
    17:00 +39°C° 0 mm 2 mps 713 mmHg 45%
    18:00 +38°C° 0 mm 2 mps 713 mmHg 48%
    19:00 +37°C° 0 mm 2 mps 713 mmHg 50%
    20:00 +37°C° 0 mm 2 mps 713 mmHg 53%
    21:00 +36°C° 0 mm 2 mps 713 mmHg 54%
    22:00 +35°C° 0 mm 1 mps 714 mmHg 55%
    23:00 +35°C° 0 mm 1 mps 714 mmHg 56%

    Tomorrow, 18 July, Wednesday

    Time Temperature Precipitation Wind Pressure Humidity
    00:00 +34°C° 0 mm 1 mps 714 mmHg 58%
    01:00 +34°C° 0 mm 1 mps 714 mmHg 60%
    02:00 +34°C° 0 mm 1 mps 714 mmHg 62%
    03:00 +34°C° 0 mm 1 mps 714 mmHg 63%
    04:00 +33°C° 0 mm 1 mps 714 mmHg 64%
    05:00 +33°C° 0 mm 1 mps 714 mmHg 65%
    06:00 +34°C° 0.2 mm 1 mps 714 mmHg 61%
    07:00 +35°C° 0.2 mm 1 mps 714 mmHg 57%
    08:00 +36°C° 0.2 mm 2 mps 715 mmHg 53%
    09:00 +36°C° 0.1 mm 1 mps 715 mmHg 50%
    10:00 +37°C° 0.1 mm 1 mps 715 mmHg 46%
    11:00 +39°C° 0.1 mm 1 mps 715 mmHg 43%
    12:00 +39°C° 0.2 mm 1 mps 715 mmHg 45%
    13:00 +37°C° 0.2 mm 1 mps 715 mmHg 46%
    14:00 +37°C° 0.2 mm 1 mps 714 mmHg 48%
    15:00 +37°C° 0.3 mm 2 mps 714 mmHg 50%
    16:00 +37°C° 0.3 mm 2 mps 714 mmHg 51%
    17:00 +37°C° 0.3 mm 3 mps 713 mmHg 53%
    18:00 +36°C° 1.1 mm 3 mps 714 mmHg 58%
    19:00 +35°C° 1.1 mm 4 mps 714 mmHg 62%
    20:00 +34°C° 1.1 mm 4 mps 714 mmHg 67%
    21:00 +33°C° 0.9 mm 4 mps 714 mmHg 68%
    22:00 +33°C° 0.9 mm 5 mps 714 mmHg 70%
    23:00 +32°C° 0.9 mm 5 mps 715 mmHg 72%

    Day after tomorrow, 19 July, Thursday

    Time Temperature Precipitation Wind Pressure Humidity
    00:00 +32°C° 0.6 mm 4 mps 714 mmHg 73%
    01:00 +32°C° 0.6 mm 4 mps 714 mmHg 74%
    02:00 +31°C° 0.6 mm 3 mps 714 mmHg 76%
    03:00 +30°C° 1.1 mm 3 mps 714 mmHg 76%
    04:00 +30°C° 1.1 mm 3 mps 714 mmHg 77%
    05:00 +30°C° 1.1 mm 3 mps 714 mmHg 78%
    06:00 +31°C° 2.6 mm 3 mps 714 mmHg 75%
    07:00 +32°C° 2.6 mm 4 mps 715 mmHg 73%
    08:00 +32°C° 2.6 mm 4 mps 715 mmHg 71%
    09:00 +33°C° 2.3 mm 4 mps 715 mmHg 68%
    10:00 +34°C° 2.3 mm 3 mps 715 mmHg 65%
    11:00 +34°C° 2.3 mm 3 mps 715 mmHg 62%
    12:00 +34°C° 0.9 mm 3 mps 715 mmHg 62%
    13:00 +34°C° 0.9 mm 2 mps 715 mmHg 61%
    14:00 +35°C° 0.9 mm 2 mps 714 mmHg 60%
    15:00 +34°C° 0.5 mm 2 mps 714 mmHg 60%
    16:00 +34°C° 0.5 mm 2 mps 714 mmHg 61%
    17:00 +34°C° 0.5 mm 2 mps 714 mmHg 61%
    18:00 +32°C° 0.7 mm 2 mps 714 mmHg 66%
    19:00 +33°C° 0.7 mm 3 mps 714 mmHg 70%
    20:00 +31°C° 0.7 mm 3 mps 715 mmHg 75%
    21:00 +31°C° 0.3 mm 3 mps 715 mmHg 76%
    22:00 +30°C° 0.3 mm 3 mps 715 mmHg 76%
    23:00 +30°C° 0.3 mm 3 mps 715 mmHg 77%

    20 July, Friday

    Time Temperature Precipitation Wind Pressure Humidity
    00:00 +30°C° 0.5 mm 3 mps 714 mmHg 78%
    01:00 +30°C° 0.5 mm 4 mps 714 mmHg 79%
    02:00 +29°C° 0.5 mm 5 mps 714 mmHg 80%
    03:00 +29°C° 0 mm 5 mps 714 mmHg 81%
    04:00 +29°C° 0 mm 4 mps 713 mmHg 82%
    05:00 +29°C° 0 mm 4 mps 713 mmHg 83%
    06:00 +29°C° 0.4 mm 4 mps 714 mmHg 81%
    07:00 +29°C° 0.4 mm 4 mps 714 mmHg 79%
    08:00 +30°C° 0.4 mm 4 mps 715 mmHg 78%
    09:00 +30°C° 0.4 mm 4 mps 715 mmHg 76%
    10:00 +32°C° 0.4 mm 4 mps 715 mmHg 73%
    11:00 +32°C° 0.4 mm 4 mps 715 mmHg 71%
    12:00 +32°C° 1.1 mm 4 mps 715 mmHg 70%
    13:00 +33°C° 1.1 mm 4 mps 715 mmHg 68%
    14:00 +33°C° 1.1 mm 4 mps 714 mmHg 66%
    15:00 +33°C° 0.6 mm 3 mps 714 mmHg 66%
    16:00 +33°C° 0.6 mm 3 mps 714 mmHg 66%
    17:00 +32°C° 0.6 mm 2 mps 714 mmHg 66%
    18:00 +32°C° 0 mm 2 mps 714 mmHg 68%
    19:00 +31°C° 0 mm 2 mps 714 mmHg 70%
    20:00 +31°C° 0 mm 2 mps 714 mmHg 73%
    21:00 +31°C° 0 mm 3 mps 714 mmHg 74%
    22:00 +30°C° 0 mm 4 mps 714 mmHg 76%
    23:00 +30°C° 0 mm 4 mps 714 mmHg 77%

    21 July, Saturday

    Time Temperature Precipitation Wind Pressure Humidity
    00:00 +30°C° 0 mm 4 mps 714 mmHg 77%
    01:00 +29°C° 0 mm 4 mps 714 mmHg 78%
    02:00 +29°C° 0 mm 5 mps 714 mmHg 78%
    03:00 +29°C° 0.1 mm 5 mps 714 mmHg 78%
    04:00 +29°C° 0.1 mm 5 mps 713 mmHg 78%
    05:00 +29°C° 0.1 mm 5 mps 713 mmHg 77%
    06:00 +29°C° 0 mm 5 mps 714 mmHg 75%
    07:00 +30°C° 0 mm 5 mps 715 mmHg 73%
    08:00 +30°C° 0 mm 6 mps 715 mmHg 70%
    09:00 +32°C° 0 mm 6 mps 716 mmHg 66%
    10:00 +33°C° 0 mm 6 mps 716 mmHg 61%
    11:00 +34°C° 0 mm 6 mps 716 mmHg 57%
    12:00 +35°C° 0 mm 6 mps 715 mmHg 54%
    13:00 +36°C° 0 mm 5 mps 715 mmHg 52%
    14:00 +36°C° 0 mm 5 mps 714 mmHg 50%
    15:00 +36°C° 0 mm 5 mps 714 mmHg 50%
    16:00 +36°C° 0 mm 5 mps 714 mmHg 50%
    17:00 +36°C° 0 mm 5 mps 714 mmHg 50%
    18:00 +35°C° 0 mm 5 mps 714 mmHg 53%
    19:00 +35°C° 0 mm 5 mps 714 mmHg 56%
    20:00 +34°C° 0 mm 5 mps 715 mmHg 58%
    21:00 +33°C° 0 mm 5 mps 715 mmHg 60%
    22:00 +33°C° 0 mm 5 mps 715 mmHg 63%
    23:00 +32°C° 0 mm 5 mps 715 mmHg 65%

    22 July, Sunday

    Time Temperature Precipitation Wind Pressure Humidity
    00:00 +32°C° 0 mm 5 mps 714 mmHg 66%
    01:00 +30°C° 0 mm 5 mps 714 mmHg 68%
    02:00 +30°C° 0 mm 5 mps 714 mmHg 70%
    03:00 +29°C° 0 mm 5 mps 714 mmHg 71%
    04:00 +29°C° 0 mm 6 mps 714 mmHg 73%
    05:00 +29°C° 0 mm 6 mps 714 mmHg 75%
    06:00 +29°C° 0 mm 6 mps 714 mmHg 73%
    07:00 +30°C° 0 mm 6 mps 714 mmHg 71%
    08:00 +30°C° 0 mm 6 mps 715 mmHg 70%
    09:00 +32°C° 0 mm 6 mps 715 mmHg 66%
    10:00 +33°C° 0 mm 6 mps 715 mmHg 62%
    11:00 +34°C° 0 mm 5 mps 715 mmHg 58%
    12:00 +35°C° 0 mm 5 mps 714 mmHg 55%
    13:00 +35°C° 0 mm 5 mps 714 mmHg 53%
    14:00 +36°C° 0 mm 5 mps 713 mmHg 50%
    15:00 +36°C° 0 mm 5 mps 713 mmHg 51%
    16:00 +35°C° 0 mm 5 mps 713 mmHg 52%
    17:00 +35°C° 0 mm 5 mps 713 mmHg 54%
    18:00 +34°C° 0 mm 5 mps 713 mmHg 56%
    19:00 +34°C° 0 mm 5 mps 713 mmHg 59%
    20:00 +33°C° 0 mm 4 mps 714 mmHg 62%
    21:00 +32°C° 0 mm 4 mps 714 mmHg 64%
    22:00 +32°C° 0 mm 4 mps 714 mmHg 65%
    23:00 +32°C° 0 mm 4 mps 714 mmHg 67%
    Show more